Location: Beccas
(43.4309°N, 0.1528°E)
Time: 10:57:49
(UTC+00:00)

Cosmos 1892 Rocket - Pass Details

Date: 15 October 2021
Orbit: 605 x 634 km, 82.5° (Epoch: 07 December)

Event Time Altitude Azimuth Distance (km) Brightness Sun altitude
Rises 18:35:26 0° 353° (N) 2,939 7.2 -15.2°
Reaches altitude 10° 18:37:42 10° 356° (N) 2,024 6.3 -15.6°
Maximum altitude 18:42:12 72° 81° (E) 665 3.5 -16.4°
Drops below altitude 10° 18:46:37 10° 166° (SSE) 1,994 6.0 -17.2°
Sets 18:48:50 0° 168° (SSE) 2,892 6.8 -17.6°
